STARLINK-34992, 65412

Orbit data source: Space-Track

STARLINK-34992, 65412 is a payload satellite owned by SpaceX/Seattle (US) in LEO that was launched on Sun, 31 Aug 2025 UTC via an FALCON 9 launch vehicle from the Air Force Eastern Test Range (AFETR). Payload-class satellites include a variety of spacecraft equipped with specific instruments for various scientific and technological missions. These include communications satellites like Starlink; space stations such as the ISS; scientific satellites like the Hubble; Earth observation satellites from companies like Planet Labs, Umbra, and HawkEye 360; GPS; miniature CubeSats for education and research; and military/defense satellites.

Loading next visibility...
Identifier
65412, 2025-192J
Orbit
LEO
Country
Flag of USUS
Related business
Manufacturer
SpaceX/Seattle
Mission
Operational Commercial Communications
Bus & Motor
STARLINK V2MO, Unknown motor
Mass
575 kg wet, ~530 kg dry
Launch date (UTC)
2025-08-31 (10 months ago)
Launch vehicle
FALCON 9
Launch site
Air Force Eastern Test Range (AFETR)
Object type
Payload
Rocket body
Debris
Shape & HBR
Box + 2 Pan, 17.7 m
Radar Cross Section
36.964 m², Large (>1 m²)

Expand to show TLE details & history
Last TLE update: 1 day ago

TLE from 1 day ago
0 STARLINK-34992
1 65412U 25192J   26170.57359880  .00012027  00000-0  39858-3 0  9996
2 65412  53.1585 118.3635 0001131  91.6252 268.4879 15.31710739 44970
Epoch: 2026-06-19T13:45Z
TLE epoch observation values (Epoch: 2026-06-19T13:45:58.936Z)
Latitude
-0.00001°
Longitude
4.0673°
Altitude
471.629 km
Speed
7.631 km/s
True Right ascension
07h 53m 27s
True Declination
0° 00' 00"
Sunlit
Object was in daylight at epoch
Visualization orbit readout
Latitude
Unknown
Longitude
Unknown
Altitude
Unknown
Speed
Unknown
Apparent Right ascension
Unknown
Apparent Declination
Unknown
Sunlit
N/A
Visualization observer readout
Local Sidereal Time
07:17:30
Azimuth
Unknown
Elevation
Unknown
Doppler factor
Unknown
Orbital elements
Apogee altitude
471.739 km
Perigee altitude
470.19 km
Semi-major axis
6,849.102 km
Eccentricity
0.00011
Inclination
53.1585°
RAAN
118.3635°
Arg. of periapsis
91.6252°
True anomaly
268.47494°
Mean anomaly
268.4879°
Eccentric anomaly
268.48142°
Mean motion
3.82906 °/min
Orbital period
94.02 mins
BSTAR
0.00039858
Loading maneuver chart data...
Computing Atmospheric mass density...
Loading historical data...
Loading historical data...
Loading historical data...
Loading historical data...
Loading historical data...
Loading historical data...
Loading historical data...

Documentation

Showing up to 5 results
|